Wind_Speed
17 18 19 21 22 22 18 16 17 18 16 17 13 1 6 3 2 2 2 2 1 20 28 31 24 18 24 16 21 20 18 19 18 17 19 21 24 23 21 22 21 18 19 20
7 7 9 14 15 16 20 14 17 19 16 14 18 10 9 10 14 9 7 10 3 7 23 35 32 25 22 21 20 22 21 18 16 17 18 20 21 22 25 25 24 23 24 23
6 11 14 7 4 5 11 8 8 11 11 13 14 16 18 12 11 11 12 12 6 10 5 23 16 16 24 25 21 23 22 17 14 11 12 16 18 21 21 21 22 23 25 25
7 9 3 6 7 12 11 5 5 6 8 10 10 11 15 18 13 12 16 17 14 13 14 9 13 15 17 20 28 29 25 23 20 17 15 15 16 17 17 18 18 17 20 22
4 5 11 17 18 19 11 13 12 15 16 16 14 11 15 17 18 14 18 22 21 19 18 17 15 14 16 16 19 34 38 35 30 28 27 26 27 28 28 29 29 29 28 28
8 5 4 5 11 12 12 17 17 17 17 17 15 12 10 15 14 15 31 33 33 30 28 27 25 19 18 15 15 17 32 39 38 37 36 35 33 32 32 33 33 33 33 34
7 8 9 14 16 18 14 13 18 22 21 18 13 12 10 14 16 19 22 34 38 37 35 32 28 27 25 21 17 16 17 22 30 32 34 35 36 35 36 37 38 39 40 39
6 5 8 8 13 25 29 34 35 36 35 31 21 18 15 16 16 18 19 21 29 32 33 32 32 31 30 25 20 23 25 23 24 25 26 31 35 37 41 42 38 36 37 40
13 15 22 25 33 33 35 38 39 41 41 43 39 32 25 20 21 24 24 20 26 28 28 29 28 25 22 22 25 26 25 25 25 27 31 35 35 36 35 35 34 36 37 36
25 20 28 34 37 36 36 37 38 41 41 43 45 41 39 31 26 25 30 30 25 29 28 28 28 30 24 24 24 23 21 23 27 28 30 33 35 37 43 46 46 45 43 41
27 27 34 37 35 35 32 29 30 32 34 38 41 47 43 43 33 30 33 29 26 26 29 29 27 25 25 24 22 22 24 25 28 32 35 38 41 42 43 44 48 52 47 45
31 35 39 43 34 29 34 36 37 39 40 41 40 40 39 40 38 36 34 33 31 31 33 33 32 30 30 31 32 30 28 30 34 37 39 38 39 42 42 43 46 49 50 48
37 40 41 36 29 29 36 39 42 39 31 35 41 43 39 34 34 34 36 33 28 28 28 28 26 26 31 36 40 38 36 36 36 39 40 38 40 41 41 41 42 43 42 38
30 25 26 24 29 28 35 35 36 24 25 24 27 31 35 31 30 33 39 40 26 26 25 20 21 24 33 35 32 36 39 34 34 37 39 40 39 36 33 30 24 22 21 17
24 18 19 24 22 26 26 27 21 13 13 7 15 22 25 23 25 31 35 42 24 22 26 29 29 26 36 31 27 26 23 27 33 33 23 20 12 10 12 15 14 17 18 17
20 18 17 22 22 21 27 25 21 8 5 6 8 17 24 26 31 31 23 32 29 24 29 27 28 36 44 28 17 13 13 10 5 7 7 10 12 8 12 15 14 14 15 13
18 13 13 18 16 17 22 24 24 19 9 5 7 24 25 27 21 24 17 17 18 20 21 28 28 29 11 2 4 2 2 7 7 7 5 4 6 4 8 15 18 12 13 17
13 12 13 14 15 14 15 19 21 18 23 18 4 16 13 24 18 11 9 14 22 24 21 18 10 11 10 6 10 9 5 3 2 3 2 5 8 11 12 14 18 20 18 17
10 8 9 9 10 12 12 12 13 14 14 15 15 15 13 13 11 11 7 10 10 10 11 11 13 9 8 5 8 9 9 8 7 7 4 3 4 3 5 4 6 6 10 11
10 8 8 7 9 9 9 9 9 10 8 11 8 6 5 5 6 7 14 14 17 15 12 11 13 13 12 11 11 7 5 4 3 3 5 6 5 5 6 5 6 7 9 11
6 7 8 9 8 9 14 13 13 8 22 16 15 15 12 19 20 24 17 13 11 15 10 7 9 6 2 4 5 5 6 7 9 10 12 12 12 10 9 8 6 5 6 6
10 10 13 17 18 23 28 30 29 24 28 20 20 19 17 20 22 19 17 12 11 13 10 10 10 8 9 10 9 10 11 11 11 11 10 8 7 6 6 6 6 7 8 9
19 23 22 21 24 26 26 26 24 23 22 20 20 19 17 18 19 16 13 14 14 15 15 16 16 15 15 13 12 11 10 9 9 8 7 8 9 9 8 8 8 8 9 9
15 17 18 22 23 22 20 21 19 19 17 17 18 19 20 17 19 19 19 21 20 19 19 19 17 15 13 12 10 9 9 9 8 9 9 8 7 8 9 9 10 10 10 10
23 21 19 18 18 17 19 19 17 16 17 18 19 20 21 21 19 21 21 20 20 17 17 18 17 17 16 14 12 11 10 9 8 7 7 7 7 7 8 9 11 12 12 12
17 16 14 14 12 14 18 19 17 18 19 21 23 23 22 20 20 20 19 20 20 18 17 14 15 15 17 18 15 12 12 12 10 9 9 10 11 11 11 13 14 15 16 16
16 13 11 11 14 14 14 14 17 20 20 20 21 21 20 18 18 18 20 22 22 20 16 16 16 14 15 18 16 12 11 10 8 9 10 11 11 11 12 12 13 14 16 16
Wind_Direction
268 277 288 293 288 289 292 291 264 285 284 287 289 155 180 282 288 123 147 133 55 239 239 235 226 221 227 200 214 221 220 208 209 208 214 217 213 211 214 218 216 218 226 228
276 288 308 334 317 295 281 260 257 278 270 266 266 251 258 259 225 255 225 188 228 285 242 246 230 228 224 215 202 215 222 220 213 210 216 221 224 225 225 228 234 240 242 240
275 295 317 322 83 30 320 295 259 247 268 282 264 261 258 238 237 209 217 212 249 293 297 230 245 232 232 231 223 213 213 208 209 218 216 223 232 236 234 234 236 239 245 248
265 304 174 157 329 322 312 258 232 252 274 292 301 272 262 253 237 228 208 216 235 261 264 258 289 257 244 233 230 229 225 225 224 222 222 223 230 227 226 232 236 238 241 246
267 252 273 275 277 268 275 270 268 280 269 270 283 262 257 256 251 238 217 221 218 236 245 254 258 251 263 256 257 231 231 235 234 234 234 233 235 236 233 234 236 242 245 248
279 265 242 276 266 247 275 268 264 256 254 257 260 250 235 245 225 211 198 208 213 218 229 239 245 244 233 234 246 242 237 238 239 239 241 240 242 246 247 250 252 254 253 252
280 256 264 269 254 262 279 257 242 249 255 252 254 252 208 172 169 172 188 200 211 210 219 228 232 228 231 231 245 247 243 244 247 251 254 255 260 263 266 268 268 268 268 261
298 256 272 242 284 310 291 281 278 272 265 259 245 245 228 205 192 193 200 213 206 204 209 214 213 214 211 214 249 260 256 254 255 258 261 265 269 272 273 274 272 272 271 267
277 263 277 292 299 296 292 285 285 282 274 262 251 241 234 221 222 225 222 223 231 224 212 213 215 218 218 221 215 222 232 250 256 258 261 261 264 265 262 261 262 267 274 280
291 300 313 302 299 296 288 286 281 275 275 272 259 241 232 234 231 232 232 234 243 253 252 248 244 235 225 226 238 244 250 252 262 277 281 280 276 268 262 259 262 263 268 272
303 311 308 312 306 306 299 295 295 284 272 262 266 260 245 227 228 231 233 230 238 255 263 268 263 261 257 251 250 252 263 271 278 282 284 282 277 274 269 267 263 264 265 266
308 309 301 309 310 307 299 300 294 288 276 260 254 256 253 237 231 225 233 228 227 236 245 252 260 263 260 259 267 271 274 276 278 284 283 284 276 269 265 265 264 263 262 264
312 308 304 307 309 306 304 306 304 296 282 267 254 247 245 242 232 225 224 233 229 238 247 250 259 274 276 271 266 265 271 274 276 280 286 281 278 274 268 265 264 263 264 267
320 323 312 319 322 322 318 316 313 302 297 281 254 237 222 223 224 217 227 234 232 232 241 249 269 283 309 296 274 259 258 266 277 283 282 282 276 270 268 268 272 266 269 269
340 334 332 329 330 338 352 346 331 308 323 308 210 194 202 204 209 214 218 227 218 238 246 257 269 281 301 287 259 243 248 260 277 285 283 270 274 282 262 273 259 274 250 257
344 344 340 353 352 355 352 354 358 337 333 280 181 180 193 202 204 207 202 214 237 245 258 268 278 286 289 276 256 244 247 243 232 259 269 231 270 260 268 242 275 213 252 211
339 347 349 4 355 346 10 16 21 42 66 81 153 184 191 189 177 169 188 204 237 262 272 276 281 281 232 284 234 181 194 234 244 249 269 209 203 270 260 264 268 213 230 249
324 338 343 0 351 349 358 2 27 38 55 55 135 190 195 188 156 189 233 249 253 253 254 260 212 146 127 125 89 89 75 49 145 110 166 238 212 216 210 221 222 215 207 208
327 319 326 343 339 351 15 22 34 55 52 63 66 68 82 107 152 196 206 145 156 180 187 183 158 134 121 137 109 88 89 80 66 64 61 46 54 360 352 339 301 307 306 295
359 347 343 347 354 345 350 5 13 16 38 61 62 73 78 114 144 170 163 150 127 119 141 134 116 113 111 102 102 104 86 41 36 32 359 350 340 340 336 316 309 309 294 296
2 16 21 24 32 53 57 70 94 65 99 84 114 97 119 129 118 109 98 89 124 122 113 129 113 121 77 63 64 57 28 35 47 53 52 52 55 49 49 40 19 5 341 326
33 62 69 84 68 63 84 75 89 84 82 91 93 80 115 102 97 89 92 98 95 99 118 103 98 96 86 75 68 66 64 62 60 58 53 49 47 43 34 19 358 344 327 320
81 85 81 80 85 78 79 76 76 80 85 88 81 80 84 92 95 90 93 96 90 88 87 85 83 80 79 79 78 75 73 66 59 55 46 36 28 21 14 3 349 339 332 328
86 92 95 91 88 79 79 80 76 75 74 79 87 87 80 78 89 99 101 96 94 94 95 91 86 78 70 65 61 57 54 50 46 41 39 35 27 18 9 359 351 349 347 342
111 107 99 89 89 84 80 72 65 73 84 93 93 92 92 96 95 93 91 92 93 90 86 83 79 73 67 65 67 61 56 51 51 46 36 32 29 26 21 12 4 359 355 348
117 114 97 93 89 81 71 58 55 83 88 94 98 100 100 99 93 87 82 77 77 87 85 83 79 77 69 62 60 61 56 47 39 32 31 29 24 16 8 2 357 354 351 346
124 116 106 72 104 88 74 59 76 91 94 94 97 97 94 89 86 83 80 72 71 72 75 68 55 55 54 46 44 53 55 52 41 24 15 11 9 13 12 4 358 355 349 341
Height
3123 3124 3123 3123 3124 3124 3125 3124 3121 3120 3119 3117 3117 3116 3113 3115 3115 3115 3115 3113 3112 3117 3118 3122 3125 3130 3131 3133 3136 3140 3142 3143 3147 3150 3153 3156 3159 3161 3164 3166 3169 3172 3173 3174
3119 3120 3119 3118 3118 3117 3116 3116 3114 3114 3115 3113 3114 3113 3113 3111 3113 3113 3115 3115 3116 3116 3115 3117 3121 3124 3127 3131 3132 3136 3140 3143 3145 3147 3149 3152 3155 3157 3160 3162 3165 3167 3168 3170
3114 3115 3115 3116 3114 3113 3111 3111 3111 3111 3110 3108 3108 3108 3107 3107 3107 3106 3111 3113 3114 3112 3111 3114 3117 3119 3122 3126 3130 3133 3137 3140 3143 3145 3147 3149 3151 3152 3154 3157 3160 3162 3164 3165
3111 3111 3113 3112 3110 3110 3109 3108 3109 3108 3106 3104 3104 3103 3100 3099 3100 3101 3104 3108 3110 3110 3110 3111 3110 3114 3116 3119 3123 3129 3133 3137 3140 3142 3144 3146 3147 3149 3150 3152 3153 3156 3157 3159
3109 3109 3109 3110 3110 3107 3106 3107 3105 3104 3103 3101 3100 3098 3096 3094 3094 3095 3096 3101 3103 3106 3106 3108 3110 3109 3107 3112 3117 3121 3125 3129 3133 3136 3138 3140 3141 3143 3145 3145 3147 3149 3151 3152
3108 3107 3105 3103 3104 3103 3101 3099 3098 3097 3095 3094 3095 3094 3092 3089 3088 3088 3090 3094 3097 3099 3100 3102 3105 3108 3109 3112 3114 3116 3119 3123 3126 3128 3131 3132 3135 3136 3139 3139 3140 3141 3142 3144
3102 3101 3099 3099 3098 3098 3098 3099 3092 3090 3089 3087 3087 3089 3088 3085 3085 3086 3088 3089 3091 3093 3095 3095 3097 3100 3103 3107 3110 3111 3112 3115 3119 3122 3124 3126 3128 3129 3129 3129 3130 3131 3131 3132
3099 3097 3094 3092 3093 3094 3091 3087 3085 3082 3080 3079 3081 3083 3083 3083 3082 3083 3084 3087 3087 3088 3090 3093 3095 3097 3098 3102 3108 3111 3111 3110 3112 3114 3115 3117 3117 3118 3119 3119 3118 3118 3118 3119
3099 3091 3090 3090 3086 3083 3079 3075 3073 3069 3068 3067 3070 3074 3076 3077 3078 3078 3079 3080 3082 3084 3086 3090 3093 3094 3096 3100 3102 3103 3106 3108 3109 3110 3111 3111 3110 3111 3111 3110 3109 3108 3109 3109
3090 3083 3083 3079 3075 3073 3068 3062 3059 3058 3054 3051 3052 3058 3063 3069 3071 3072 3072 3075 3077 3079 3081 3084 3087 3090 3092 3096 3097 3098 3098 3098 3101 3103 3103 3103 3102 3102 3101 3101 3100 3099 3099 3099
3080 3077 3073 3070 3065 3059 3053 3050 3046 3043 3041 3040 3038 3039 3047 3054 3060 3063 3066 3069 3071 3074 3076 3078 3080 3082 3084 3086 3089 3090 3091 3091 3092 3094 3094 3092 3090 3089 3088 3088 3088 3088 3089 3089
3073 3071 3064 3057 3052 3049 3042 3039 3036 3029 3025 3025 3025 3027 3030 3038 3044 3050 3055 3062 3065 3068 3070 3073 3074 3076 3077 3078 3078 3079 3080 3081 3082 3083 3082 3080 3077 3076 3076 3075 3076 3077 3077 3078
3066 3059 3052 3047 3044 3039 3032 3025 3017 3010 3007 3004 3008 3012 3017 3024 3031 3039 3046 3053 3057 3062 3066 3067 3067 3068 3069 3069 3070 3070 3071 3071 3072 3072 3070 3068 3066 3064 3064 3065 3065 3065 3066 3066
3059 3048 3045 3041 3034 3030 3022 3012 3003 2997 2994 2990 2992 2998 3007 3015 3022 3031 3040 3045 3050 3054 3058 3059 3059 3059 3058 3056 3055 3057 3060 3062 3063 3061 3058 3057 3055 3054 3054 3054 3056 3057 3057 3058
3052 3046 3041 3037 3031 3026 3019 3009 2999 2993 2988 2984 2985 2993 3005 3011 3019 3027 3032 3038 3043 3047 3051 3051 3050 3050 3050 3047 3045 3046 3047 3050 3051 3050 3048 3048 3048 3048 3049 3051 3052 3052 3053 3055
3049 3044 3041 3036 3030 3026 3019 3010 3000 2994 2992 2989 2993 2998 3004 3011 3017 3022 3025 3032 3041 3044 3045 3046 3045 3045 3043 3042 3041 3041 3043 3041 3043 3043 3043 3043 3045 3045 3045 3046 3049 3046 3052 3049
3046 3044 3040 3035 3031 3027 3022 3014 3005 3001 2995 2994 2994 2998 3004 3009 3014 3019 3025 3029 3035 3038 3040 3041 3040 3039 3038 3036 3037 3038 3039 3040 3038 3038 3038 3039 3042 3043 3045 3047 3049 3046 3046 3048
3043 3040 3037 3034 3031 3027 3023 3020 3015 3009 3005 3001 3000 3003 3007 3011 3015 3020 3025 3029 3032 3033 3034 3036 3036 3036 3036 3037 3037 3038 3038 3040 3038 3038 3038 3039 3040 3042 3043 3043 3042 3042 3041 3040
3041 3039 3037 3033 3031 3028 3024 3021 3019 3016 3014 3012 3011 3012 3014 3017 3021 3025 3027 3028 3031 3032 3035 3035 3035 3035 3036 3038 3038 3039 3039 3040 3039 3037 3038 3038 3039 3040 3041 3041 3042 3041 3042 3041
3039 3037 3036 3033 3030 3028 3025 3023 3020 3018 3016 3016 3016 3016 3018 3020 3022 3024 3027 3029 3029 3030 3035 3036 3036 3038 3039 3041 3041 3042 3042 3042 3041 3039 3039 3039 3039 3040 3040 3040 3040 3041 3041 3042
3040 3037 3035 3033 3031 3029 3027 3023 3023 3021 3020 3019 3020 3022 3022 3024 3025 3025 3028 3031 3034 3034 3038 3040 3039 3041 3042 3042 3042 3043 3042 3041 3039 3038 3038 3038 3039 3039 3039 3040 3040 3040 3040 3041
3041 3039 3037 3037 3035 3032 3030 3030 3029 3030 3029 3030 3029 3028 3028 3029 3032 3034 3036 3038 3039 3040 3041 3041 3042 3043 3043 3043 3043 3044 3043 3043 3042 3042 3043 3043 3043 3043 3042 3041 3041 3040 3040 3040
3044 3042 3042 3041 3041 3040 3039 3039 3038 3038 3038 3037 3036 3036 3037 3038 3038 3040 3041 3042 3043 3044 3045 3046 3046 3047 3047 3048 3048 3048 3048 3047 3047 3047 3045 3044 3043 3043 3043 3042 3042 3041 3041 3039
3049 3048 3048 3048 3048 3048 3048 3047 3046 3045 3045 3044 3043 3043 3043 3045 3045 3047 3048 3049 3050 3051 3051 3051 3051 3051 3051 3051 3051 3050 3050 3049 3048 3047 3047 3047 3047 3046 3044 3043 3042 3041 3039 3038
3054 3055 3054 3054 3054 3054 3054 3053 3053 3052 3051 3051 3050 3050 3051 3052 3054 3053 3054 3054 3055 3056 3055 3055 3056 3055 3055 3054 3053 3053 3052 3052 3052 3051 3050 3049 3047 3046 3045 3043 3042 3040 3038 3036
3059 3059 3059 3060 3060 3059 3059 3058 3058 3056 3057 3057 3057 3057 3059 3060 3060 3060 3060 3060 3059 3060 3060 3061 3060 3060 3059 3058 3057 3056 3055 3055 3054 3053 3052 3050 3048 3046 3044 3043 3041 3038 3036 3034
3063 3063 3063 3063 3063 3063 3064 3063 3062 3061 3062 3063 3064 3064 3065 3065 3065 3066 3066 3066 3066 3066 3066 3065 3064 3063 3062 3061 3060 3059 3058 3056 3055 3054 3052 3050 3048 3046 3044 3042 3039 3036 3034 3031